Meteo pe oră la Bolshoe Konshino

Astăzi, 8 Mai, Sâmbătă

Timp Temperatura Precipitaţii Vânt Presiune Umiditate
00:00 +5°C° 0.3 mm 3 m/s 735 mmHg 90%
01:00 +5°C° 0.3 mm 3 m/s 735 mmHg 90%
02:00 +5°C° 0 mm 4 m/s 734 mmHg 91%
03:00 +5°C° 0.4 mm 4 m/s 734 mmHg 92%
04:00 +5°C° 0.4 mm 4 m/s 734 mmHg 93%
05:00 +5°C° 0.4 mm 4 m/s 733 mmHg 94%
06:00 +6°C° 0 mm 4 m/s 733 mmHg 93%
07:00 +7°C° 0 mm 3 m/s 733 mmHg 92%
08:00 +8°C° 0 mm 3 m/s 734 mmHg 92%
09:00 +8°C° 0.1 mm 3 m/s 734 mmHg 90%
10:00 +7°C° 0.1 mm 3 m/s 734 mmHg 89%
11:00 +7°C° 0.1 mm 2 m/s 734 mmHg 88%
12:00 +8°C° 0.1 mm 3 m/s 734 mmHg 83%
13:00 +8°C° 0.1 mm 3 m/s 734 mmHg 78%
14:00 +8°C° 0.1 mm 3 m/s 734 mmHg 73%
15:00 +7°C° 0 mm 4 m/s 734 mmHg 73%
16:00 +7°C° 0 mm 4 m/s 734 mmHg 72%
17:00 +7°C° 0 mm 4 m/s 734 mmHg 72%
18:00 +6°C° 0 mm 4 m/s 734 mmHg 72%
19:00 +5°C° 0 mm 4 m/s 734 mmHg 71%
20:00 +5°C° 0 mm 5 m/s 735 mmHg 71%
21:00 +4°C° 0 mm 4 m/s 735 mmHg 73%
22:00 +3°C° 0 mm 4 m/s 735 mmHg 75%
23:00 +1°C° 0 mm 4 m/s 735 mmHg 77%

Mâine, 9 Mai, Duminică

Timp Temperatura Precipitaţii Vânt Presiune Umiditate
00:00 +1°C° 0 mm 4 m/s 736 mmHg 81%
01:00 +1°C° 0 mm 4 m/s 736 mmHg 84%
02:00 0°C° 0 mm 4 m/s 737 mmHg 88%
03:00 0°C° 0 mm 5 m/s 737 mmHg 86%
04:00 0°C° 0 mm 5 m/s 738 mmHg 84%
05:00 0°C° 0 mm 5 m/s 738 mmHg 82%
06:00 +1°C° 0 mm 5 m/s 739 mmHg 75%
07:00 +3°C° 0 mm 5 m/s 739 mmHg 68%
08:00 +5°C° 0 mm 5 m/s 740 mmHg 61%
09:00 +6°C° 0 mm 5 m/s 740 mmHg 54%
10:00 +8°C° 0 mm 5 m/s 741 mmHg 47%
11:00 +9°C° 0 mm 6 m/s 741 mmHg 41%
12:00 +9°C° 0 mm 5 m/s 742 mmHg 38%
13:00 +10°C° 0 mm 5 m/s 742 mmHg 36%
14:00 +10°C° 0 mm 5 m/s 743 mmHg 33%
15:00 +10°C° 0 mm 5 m/s 743 mmHg 36%
16:00 +11°C° 0 mm 4 m/s 744 mmHg 39%
17:00 +10°C° 0 mm 4 m/s 744 mmHg 41%
18:00 +8°C° 0 mm 3 m/s 745 mmHg 48%
19:00 +6°C° 0 mm 2 m/s 746 mmHg 56%
20:00 +6°C° 0 mm 1 m/s 746 mmHg 63%
21:00 +5°C° 0 mm 1 m/s 747 mmHg 64%
22:00 +5°C° 0 mm 1 m/s 747 mmHg 65%
23:00 +4°C° 0 mm 1 m/s 748 mmHg 66%

Poimâine, 10 Mai, Luni

Timp Temperatura Precipitaţii Vânt Presiune Umiditate
00:00 +4°C° 0 mm 1 m/s 748 mmHg 69%
01:00 +4°C° 0 mm 1 m/s 748 mmHg 72%
02:00 +3°C° 0 mm 1 m/s 749 mmHg 75%
03:00 +3°C° 0 mm 2 m/s 749 mmHg 75%
04:00 +3°C° 0 mm 2 m/s 749 mmHg 76%
05:00 +3°C° 0 mm 2 m/s 750 mmHg 76%
06:00 +5°C° 0 mm 2 m/s 750 mmHg 68%
07:00 +8°C° 0 mm 3 m/s 750 mmHg 59%
08:00 +10°C° 0 mm 4 m/s 750 mmHg 51%
09:00 +11°C° 0 mm 3 m/s 750 mmHg 51%
10:00 +11°C° 0 mm 3 m/s 750 mmHg 50%
11:00 +12°C° 0 mm 3 m/s 750 mmHg 50%
12:00 +13°C° 0 mm 3 m/s 750 mmHg 48%
13:00 +14°C° 0 mm 3 m/s 750 mmHg 46%
14:00 +17°C° 0 mm 3 m/s 750 mmHg 45%
15:00 +17°C° 0 mm 3 m/s 750 mmHg 48%
16:00 +17°C° 0 mm 3 m/s 750 mmHg 51%
17:00 +17°C° 0 mm 2 m/s 750 mmHg 54%
18:00 +15°C° 0 mm 2 m/s 750 mmHg 63%
19:00 +13°C° 0 mm 2 m/s 750 mmHg 71%
20:00 +9°C° 0 mm 2 m/s 751 mmHg 80%
21:00 +9°C° 0 mm 2 m/s 751 mmHg 82%
22:00 +8°C° 0 mm 2 m/s 751 mmHg 84%
23:00 +7°C° 0 mm 2 m/s 751 mmHg 87%

11 Mai, Marţi

Timp Temperatura Precipitaţii Vânt Presiune Umiditate
00:00 +7°C° 0 mm 2 m/s 751 mmHg 87%
01:00 +8°C° 0 mm 1 m/s 752 mmHg 88%
02:00 +7°C° 0 mm 1 m/s 752 mmHg 89%
03:00 +8°C° 0 mm 1 m/s 752 mmHg 87%
04:00 +8°C° 0 mm 1 m/s 752 mmHg 86%
05:00 +8°C° 0 mm 1 m/s 752 mmHg 84%
06:00 +9°C° 0 mm 2 m/s 752 mmHg 75%
07:00 +12°C° 0 mm 2 m/s 752 mmHg 66%
08:00 +14°C° 0 mm 2 m/s 752 mmHg 57%
09:00 +14°C° 0 mm 3 m/s 752 mmHg 53%
10:00 +17°C° 0 mm 3 m/s 752 mmHg 50%
11:00 +18°C° 0 mm 3 m/s 752 mmHg 46%
12:00 +19°C° 0 mm 3 m/s 752 mmHg 45%
13:00 +19°C° 0 mm 3 m/s 752 mmHg 45%
14:00 +20°C° 0 mm 2 m/s 751 mmHg 45%
15:00 +19°C° 0 mm 2 m/s 751 mmHg 49%
16:00 +19°C° 0 mm 2 m/s 751 mmHg 52%
17:00 +18°C° 0 mm 2 m/s 751 mmHg 56%
18:00 +16°C° 0 mm 2 m/s 750 mmHg 64%
19:00 +14°C° 0 mm 2 m/s 750 mmHg 71%
20:00 +12°C° 0 mm 2 m/s 750 mmHg 79%
21:00 +10°C° 0 mm 2 m/s 750 mmHg 79%
22:00 +10°C° 0 mm 2 m/s 750 mmHg 79%
23:00 +9°C° 0 mm 2 m/s 750 mmHg 79%

12 Mai, Miercuri

Timp Temperatura Precipitaţii Vânt Presiune Umiditate
00:00 +9°C° 0 mm 1 m/s 750 mmHg 80%
01:00 +9°C° 0 mm 1 m/s 750 mmHg 81%
02:00 +9°C° 0 mm 1 m/s 750 mmHg 82%
03:00 +9°C° 0 mm 1 m/s 750 mmHg 81%
04:00 +9°C° 0 mm 1 m/s 750 mmHg 79%
05:00 +10°C° 0 mm 1 m/s 750 mmHg 78%
06:00 +12°C° 0 mm 2 m/s 750 mmHg 71%
07:00 +13°C° 0 mm 3 m/s 750 mmHg 64%
08:00 +16°C° 0 mm 3 m/s 749 mmHg 57%
09:00 +18°C° 0 mm 4 m/s 749 mmHg 55%
10:00 +19°C° 0 mm 4 m/s 749 mmHg 53%
11:00 +21°C° 0 mm 5 m/s 749 mmHg 50%
12:00 +21°C° 0 mm 5 m/s 748 mmHg 51%
13:00 +22°C° 0 mm 5 m/s 748 mmHg 52%
14:00 +22°C° 0 mm 5 m/s 748 mmHg 53%
15:00 +21°C° 0.1 mm 5 m/s 748 mmHg 58%
16:00 +20°C° 0.1 mm 4 m/s 748 mmHg 63%
17:00 +19°C° 0.1 mm 4 m/s 748 mmHg 68%
18:00 +18°C° 0 mm 3 m/s 747 mmHg 74%
19:00 +17°C° 0 mm 2 m/s 747 mmHg 80%
20:00 +15°C° 0 mm 1 m/s 747 mmHg 86%
21:00 +15°C° 0 mm 2 m/s 747 mmHg 88%
22:00 +15°C° 0 mm 2 m/s 747 mmHg 90%
23:00 +14°C° 0 mm 2 m/s 747 mmHg 92%

13 Mai, Joi

Timp Temperatura Precipitaţii Vânt Presiune Umiditate
00:00 +13°C° 0.1 mm 3 m/s 746 mmHg 93%
01:00 +13°C° 0.1 mm 3 m/s 746 mmHg 94%
02:00 +13°C° 0.1 mm 3 m/s 745 mmHg 96%
03:00 +13°C° 0.2 mm 3 m/s 745 mmHg 96%
04:00 +13°C° 0.2 mm 3 m/s 745 mmHg 96%
05:00 +13°C° 0.2 mm 4 m/s 744 mmHg 96%
06:00 +14°C° 0.1 mm 4 m/s 744 mmHg 94%
07:00 +14°C° 0.1 mm 4 m/s 744 mmHg 93%
08:00 +14°C° 0.1 mm 5 m/s 744 mmHg 92%
09:00 +15°C° 0.3 mm 5 m/s 743 mmHg 90%
10:00 +15°C° 0.3 mm 5 m/s 743 mmHg 88%
11:00 +16°C° 0.3 mm 6 m/s 743 mmHg 86%
12:00 +16°C° 0.5 mm 5 m/s 743 mmHg 86%
13:00 +16°C° 0.5 mm 5 m/s 743 mmHg 85%
14:00 +17°C° 0.5 mm 4 m/s 743 mmHg 85%
15:00 +17°C° 0.2 mm 4 m/s 743 mmHg 82%
16:00 +18°C° 0.2 mm 4 m/s 743 mmHg 79%
17:00 +18°C° 0.2 mm 3 m/s 743 mmHg 76%
18:00 +17°C° 0.1 mm 3 m/s 743 mmHg 82%
19:00 +15°C° 0.1 mm 2 m/s 743 mmHg 88%
20:00 +14°C° 0.1 mm 2 m/s 743 mmHg 94%
21:00 +13°C° 0 mm 2 m/s 743 mmHg 95%
22:00 +13°C° 0 mm 2 m/s 743 mmHg 95%
23:00 +12°C° 0 mm 2 m/s 743 mmHg 96%
Arată mai mult

Formular de consimțământ

Meteoprog și furnizorii noștri de servicii pot stoca și accesa date personale, precum cookies, identificatori de dispozitiv sau alte tehnologii similare pe dispozitivul dumneavoastră și procesa astfel de date pentru a personaliza conținutul și reclamele, dar și pentru a oferi caracteristici de social media și pentru a analiza traficul.

  • Stocarea și/sau accesarea informațiilor pe dispozitivul dumneavoastră

    Cookies, identificatori de dispozitiv sau alte informații pot fi stocate sau accesate pe dispozitiv în scopurile indicate mai sus.

  • Reclame și conținut personalizat, evaluarea reclamelor și a conținutului, informații despre audiențe și dezvoltarea produselor

    Reclamele și conținutul pot fi personalizate pe baza unui profil. Pot fi adăugate date suplimentare pentru a personaliza mai bine reclamele și conținutul. Performanța reclamelor și conținutului poate fi măsurată. Pot fi obținute informații despre utilizatorii care au văzut reclamele și conținutul. Aceste date pot fi utilizate pentru a dezvolta sau îmbunătăți experiența utilizatorilor, sistemele și software-ul.

Dând clic pe ‘Sunt de acord’, permiteți utilizarea cookie-urilor menționate, a identificatorilor de dispozitiv, balizelor web sau altor tehnologii similare. Setările pot fi modificate din browser-ul dispozitivului dumneavoastră.

În anumite scopuri, interesele legitime pot prima asupra consimțământului. Puteți citi mai multe informații în acest sens în Politica privind Confidențialitatea Datelor și Cookie.